www.pogodaiklimat.ru

Погода и климат >> Архив погоды >> Боливия >> Yacuiba


ПОГОДА в Yacuiba

  • Прогноз погоды в Yacuiba
  • Монитор погоды в Yacuiba
  • Климат города

АРХИВ ПОГОДЫ в Yacuiba

Время (UTC), дата Ветер
(напр.,м/с)
 
Видим.   Явления Облачность Т
(С)
Тd
(С)
f
(%)
Тe
(С)
Тes
(С)
Комфортность P
(гПа)
Po
(гПа)
Тmin
(С)
Tmax
(С)
R
(мм)
R24
(мм)
S
(см)
12 13.06 штиль 0 20 км 10/5 800 м
[Sc As op]
+10.6 +7.7 82 +10 +10 1026.5 951.2 +9.2
15 13.06 штиль 0 20 км 10/0 2000 м
[As op]
+14.4 +6.4 59 +14 +17 1027.0 951.5
18 13.06 В 3 20 км 10/0 2000 м
[As op]
+15.6 +5.5 51 +15 +17 1023.9 948.2
21 13.06 штиль 0 20 км 10/0 2000 м
[As trans]
+14.0 +6.7 61 +14 +14 1022.8 947.5 +16.2
12 14.06 штиль 0 20 км 10/0 2000 м
[As op]
+9.1 +6.0 81 +8 +9 1026.3 951.6 +7.8
15 14.06 штиль 0 20 км 9/0 2000 м
[As op]
+12.1 +4.1 58 +12 +15 1026.5 951.6
18 14.06 штиль 0 20 км 9/0 2000 м
[As op]
+14.8 +3.6 47 +15 +18 1023.0 948.8
21 14.06 штиль 0 20 км 10/0 2000 м
[As op]
+13.2 +4.7 56 +13 +13 1024.8 949.2 +16.6
12 15.06 штиль 0 20 км 10/0 2000 м
[As op]
+7.5 +4.5 81 +7 +7 1031.0 955.0 +6.6
15 15.06 ЮЗ 3 20 км 10/0 2000 м
[As op]
+9.2 +4.5 72 +7 +9 1031.0 956.2
18 15.06 ЮЗ 2 20 км 10/0 2000 м
[As op]
+11.4 +5.6 67 +10 +12 1028.3 953.3
21 15.06 штиль 0 20 км 10/0 2000 м
[As op]
+10.4 +5.8 73 +10 +10 1028.0 953.3 +12.0
12 16.06 штиль 0 15 км дым 9/0 2000 м
[As op Ci fib]
+5.8 +1.4 73 +5 +6 1029.6 953.8 +2.3
15 16.06 штиль 0 15 км дым 10/0 2000 м
[As op]
+12.0 +4.8 61 +12 +14 1029.8 954.2
18 16.06 ЮЗ 2 15 км дым 10/5 900 м
[Sc As op]
+13.4 +5.1 57 +13 +14 1026.5 951.0
21 16.06 ЮЗ 2 20 км 10/4 900 м
[Sc As op]
+11.8 +4.7 62 +11 +11 1026.6 949.7 +14.4
12 17.06 штиль 0 20 км 8/0 2000 м
[Ac trans]
+8.9 +7.8 93 +8 +9 1027.9 952.8 +7.9
15 17.06 штиль 0 20 км 6/1 700 м
[Cu hum Ci fib]
+15.6 +8.4 62 +15 +26 опасность
простуды
1028.2 952.8
18 17.06 штиль 0 20 км 5/0
[Ci fib]
+19.4 +8.7 50 +20 +29 1024.9 950.1
21 17.06 штиль 0 20 км 6/0
[Ci fib]
+17.8 +9.0 56 +18 +18 1024.5 949.3 +20.6
12 18.06 штиль 0 20 км 5/0
[Ci fib]
+3.6 +3.0 96 +2 +4 1029.9 950.6 +0.7
15 18.06 СВ 4 20 км 4/0
[Ci fib]
+18.9 +10.5 58 +20 +25 1025.5 950.5
18 18.06 СВ 4 20 км 4/0
[Ci fib]
+21.9 +11.9 53 +24 +29 комфорт 1020.9 947.0
21 18.06 СВ 4 20 км 4/0
[Ci fib]
+20.6 +11.6 56 +23 +23 комфорт 1019.9 945.7 +23.3
12 19.06 штиль 0 20 км 4/0 2000 м
[Ci fib]
+6.5 +4.7 88 +6 +7 1017.8 942.5 +3.3
15 19.06 СВ 8 20 км 4/0
[Ci fib]
+22.6 +14.0 58 +26 +27 жарко 1016.6 942.3
18 19.06 СВ 7 15 км дым 3/0
[Ci fib]
+25.8 +14.6 50 +28 +30 жарко 1012.2 939.8
21 19.06 СВ 6 15 км дым ясно +24.5 +15.8 58 +28 +28 душно 1011.3 938.7 +27.6

 

Местоположение метеостанции Yacuiba (Боливия): широта -21.95 долгота -63.65 высота над уровнем моря 645 м.

В архиве по умолчанию представлена погода в Yacuiba за последнюю неделю. Архивные данные за месяц целиком и за предыдущие месяцы, начиная с января 2011 года, Вы можете получить, выбрав интересующий диапазон дат из раскрывающегося списка и нажав кнопку "Ввод!".


*Определитесь, кто Вы:
робот инопланетянин человек

Внимание! Время в таблицах - всемирное. Для получения местного времени необходимо прибавить поправку, которая в Yacuiba равна -4 ч.

Смотрите также архив погоды в соседних городах и на ближайших метеорологических станциях:

Погода в Tartagal (Аргентина) (76 км)
Погода в Villamontes (Боливия) (81 км)
Погода в Bermejo (Боливия) (113 км)
Погода в Tarija (Боливия) (117 км)
Погода в San Ramon de la Nueva Oran (Аргентина) (150 км)
Погода в La Quiaca (Аргентина) (202 км)
Погода в Camiri (Боливия) (217 км)
Погода в Prats-Gil (Парагвай) (236 км)
Погода в Monteagudo (Боливия) (243 км)
Погода в San Salvador de Jujuy (Аргентина) (307 км)

Пояснения к столбцам:

Ветер - указаны скорость ветра в м/с - средняя за 10 мин, порывы в срок и между сроками (в фигурных скобках) и направление, откуда дует ветер: С - северный, СВ - северо-восточный, В - восточный, ЮВ - юго-восточный, Ю - южный, ЮЗ - юго-западный, З - западный, СЗ - северо-западный.
Видимость - горизонтальная дальность видимости в метрах или километрах. При видимости от 1 до 10 км при отсутствии осадков обычно наблюдается дымка, при ухудшении видимости до 1 км и менее - туман. В сухую погоду видимость может ухудшаться дымом, пылью или мглою.
Явления - указаны атмосферные явления, наблюдавшиеся в срок или в последний час перед сроком; фигурными скобками обозначены явления, наблюдавшиеся между сроками (за 1-3 часа до срока); квадратными скобками обозначены град или гололедные отложения с указанием их диаметра в мм.
Облачность - указаны через наклонную черту общая и нижняя облачность в баллах и высота нижней границы облаков в метрах; квадратными скобками обозначены формы облаков: Ci - перистые, Cs - перисто-слоистые, Cc - перисто-кучевые, Ac - высококучевые, As - высокослоистые, Sc - слоисто-кучевые, Ns - слоисто-дождевые, Cu - кучевые, Cb - кучево-дождевые. Подробнее классификацию облаков см. в Атласе облаков (PDF).
T - Температура воздуха - температура, измеренная на высоте 2 м над землей.
Td - Температура точки росы - температура, при понижении до которой содержащийся в воздухе водяной пар достигнет насыщения.
f - Относительная влажность воздуха - влажноcть воздуха, измеренная на высоте 2 м над землей.
Te - Эффективная температура - температура, которую ощущает одетый по сезону человек в тени. Характеристика душности погоды. При расчете учитывается влияние влажности воздуха и скорости ветра на теплоощущения человека.
Tes - Эффективная температура на солнце - температура, которую ощущает человек, с поправкой на солнечный нагрев. Характеристика знойности погоды. Зависит от высоты солнца над горизонтом, облачности и скорости ветра. Ночью, в пасмурную погоду, а также при ветре 12 м/с и более поправка равна нулю.
P - Атмосферное давление - приведенное к уровню моря атмосферное давление.
Po - Атмосферное давление - измеренное на уровне метеостанции атмосферное давление.
Tmin - Минимальная температура - минимум температуры воздуха на высоте 2 м над землей.
Tmax - Максимальная температура - максимум температуры воздуха на высоте 2 м над землей.
R - Количество осадков - Количество выпавших осадков за период времени, мм. При наведении курсора мыши на число - период времени, за который выпало указанное количество осадков.
R24 - Количество осадков - Количество выпавших осадков за 24 часа, мм.
S - Снежный покров - Высота снежного покрова, см. При наведении курсора мыши на число - состояние снежного покрова и степень покрытия местности в баллах.